This is the latest recevied weather packets stored in our database for station/object K9MWD. If no packets are shown the sender has not sent any weather packets the latest 10 day(s).
| Time | Temp. | Humidity | Pressure | Rain* | Wind** | Luminosity | Snow |
|---|---|---|---|---|---|---|---|
| 1777249321 | 28.33° C | 71% | 1005.4 hPa | 0 mm | - | 46 W/m² | - |
| 1777249018 | 28.89° C | 71% | 1005.5 hPa | 0 mm | - | 54 W/m² | - |
| 1777248714 | 28.89° C | 70% | 1005.7 hPa | 0 mm | - | 62 W/m² | - |
| 1777248411 | 28.89° C | 70% | 1005.6 hPa | 0 mm | - | 71 W/m² | - |
| 1777248107 | 28.89° C | 70% | 1005.6 hPa | 0 mm | - | 80 W/m² | - |
| 1777247805 | 29.44° C | 69% | 1005.6 hPa | 0 mm | - | 88 W/m² | - |
| 1777247503 | 29.44° C | 69% | 1005.3 hPa | 0 mm | - | 99 W/m² | - |
| 1777247201 | 29.44° C | 69% | 1005.7 hPa | 0 mm | - | 111 W/m² | - |
| 1777246898 | 29.44° C | 68% | 1005.6 hPa | 0 mm | - | 122 W/m² | - |
| 1777246594 | 29.44° C | 67% | 1005.7 hPa | 0 mm | - | 134 W/m² | - |
| 1777246291 | 29.44° C | 67% | 1005.5 hPa | 0 mm | - | 145 W/m² | - |
| 1777245989 | 29.44° C | 66% | 1005.5 hPa | 0 mm | - | 158 W/m² | - |
| 1777245687 | 29.44° C | 67% | 1005.6 hPa | 0 mm | - | 172 W/m² | - |
| 1777245384 | 30° C | 66% | 1005.7 hPa | 0 mm | - | 202 W/m² | - |
| 1777245083 | 29.44° C | 67% | 1005.6 hPa | 0 mm | - | 208 W/m² | - |
| 1777244780 | 29.44° C | 68% | 1005.8 hPa | 0 mm | - | 200 W/m² | - |
| 1777244476 | 29.44° C | 68% | 1005.7 hPa | 0 mm | - | 147 W/m² | - |
| 1777244172 | 30° C | 66% | 1005.8 hPa | 0 mm | - | 130 W/m² | - |
| 1777243872 | 30° C | 67% | 1005.8 hPa | 0 mm | - | 304 W/m² | - |
| 1777243568 | 30° C | 67% | 1005.7 hPa | 0 mm | - | 165 W/m² | - |
| 1777243263 | 30° C | 67% | 1006.2 hPa | 0 mm | - | 152 W/m² | - |
| 1777242959 | 30° C | 68% | 1006 hPa | 0 mm | - | 332 W/m² | - |
| 1777242657 | 30.56° C | 67% | 1005.9 hPa | 0 mm | - | 234 W/m² | - |
| 1777242352 | 30.56° C | 66% | 1006 hPa | 0 mm | - | 391 W/m² | - |
| 1777242049 | 30.56° C | 66% | 1006.1 hPa | 0 mm | - | 426 W/m² | - |
* Rain latest hour (hover to see other rain measurements)
** Current wind speed in m/s (hover to see current wind gust speed)